sat.trackr.live / text

‹ back to catalog

STARLINK-32348

NORAD 61631 · 2024-191L

PAYLOAD ACTIVE UNKNOWN

§ Identity

Operator
Country
US
Launch date
2024-10-23
Launch site
AFETR
Launch vehicle
Mass (kg)
RCS (m²)

Purposes: comms

External: N2YO · Heavens-Above · Gunter

§ Orbital elements

Epoch: 2026-09-21T01:16:24.434112Z

Period
94.27 min
Inclination
43.0007°
Eccentricity
0.0001216
Mean motion
15.27580383 rev/d
Perigee alt
482.2 km
Apogee alt
483.9 km
Semi-major
6,861.2 km
B*
3.0346e-5
RAAN
134.7503°
Arg perigee
269.5423°
Mean anomaly
90.5289°
Rev number
10,737

§ Raw data

STARLINK-323481 61631U 24191L   26264.05306058  .00000573  00000+0  30346-4 0  99952 61631  43.0007 134.7503 0001216 269.5423  90.5289 15.27580383107370

JSON: /api/v1/satellites/61631 · /tle

For live sub-satellite position, see the globe view (requires WebGL).

§ Visibility from observer

Set your observer location to see the next 7 days of passes ≥ 10°. The values pass through the URL so the page stays shareable.

No JS? Fill the form by hand. The geolocation button needs JavaScript.